Location: Bernay
(48.6766°N, 2.9386°E)
Time: 17:40:14
(UTC+00:00)

Cosmos 1933 Rocket - Pass Details

Date: 12 January 2026
Orbit: 599 x 624 km, 82.5° (Epoch: 17 February)

Event Time Altitude Azimuth Distance (km) Brightness Sun altitude
Rises 17:46:54 0° 356° (N) 2,911 6.9 -14.5°
Reaches altitude 10° 17:49:18 10° 5° (N) 1,996 6.0 -14.8°
Maximum altitude 17:53:24 37° 73° (ENE) 974 4.0 -15.5°
Drops below altitude 10° 17:57:27 10° 141° (SE) 1,968 5.9 -16.1°
Sets 17:59:47 0° 150° (SSE) 2,863 6.8 -16.5°
